SCP
0 0 0 0 0 0 0 0 0 0 0 0 0 0 0 0 0 0 0 0 0 0 0 0 0 0 0 0 0 0 0 0 0 0 -0 0 -0 -0 -0 0 0 0 -0 -0 -0 -0 -0
0 0 0 0 0 0 0 0 0 0 0 0 0 0 0 0 0 0 0 0 0 0 0 0 0 0 0 0 0 0 0 0 0 0 0 -0 -0 -0 -0 -0 -0 -0 -0 0 -0 0 0
0 0 0 0 0 0 0 0 0 0 0 0 0 0 0 0 0 0 0 0 0 0 0 0 0 0 0 0 0 0 0 0 0 0 -0 -0 -0 -0 0 0 0 0 0 -0 0 -0 0
0 0 0 0 0 0 0 0 0 0 0 0 0 0 0 0 0 0 0 0 0 0 0 0 0 0 0 0 0 0 0 0 0 -0 -0 0 0 -0 -0 -0 -0 -0 -0 -0 0 -0 0
0 0 0 0 0 0 0 0 0 0 0 0 0 0 0 0 0 0 0 0 0 0 0 0 0 0 0 0 0 0 0 0 0 0 0 0 -0 -0 0 0 -0 -0 -0 -0 0 0 0
0 0 0 0 0 0 0 0 0 0 0 0 0 0 0 0 0 0 0 0 0 0 0 0 0 0 0 0 0 0 0 0 0 0 0 0 0 0 -0 0 0 0 -0 -0 0 0 0
0 0 0 0 0 0 0 0 0 0 0 0 0 0 0 0 0 0 0 0 -0 -0 -0 0 0 0 0 0 0 0 0 0 0 0 0 0 0 -0 0 0 0 -0 0 -0 0 0 0
0 0 0 0 0 0 0 0 0 0 0 0 0 0 0 0 0 0 0 0 0 0 0 0 0 0 0 0 0 0 0 0 0 0 0 0 -0 0 0 0 0 0 0 0 0 0 0
0 0 0 0 0 0 0 0 0 0 0 0 0 0 0 0 0 0 0 0 0 0 0 0 0 0 0 0 0 0 0 0 0 0 -0 -0 0 0 0 -0 -0 -0 0 0 0 -0 -0
0 0 0 0 0 0 0 0 0 0 0 0 0 0 0 0 0 0 0 0 0 0 0 0 0 0 0 0 0 -0 0 0 0 0 -0 -0 -0 0 -0 0 -0 0 -0 -0 0 0 0
0 0 0 0 0 0 0 0 0 0 0 0 0 0 0 0 0 0 0 0 0 0 0 0 0 0 0 0 0 0 0 0 0 0 0 -0 0 -0 0 0 0 0 0 -0 0 -0 -0
0 0 0 0 0 0 0 0 0 0 0 0 0 0 0 0 0 0 0 0 0 0 0 0 0 0 0 0 0 0 0 0 0 0 0 -0 0 -0 0 0 -0 -0 0 0 -0 -0 -0
0 0 0 0 0 0 0 0 0 0 0 0 0 0 0 0 0 0 0 0 0 0 0 0 0 0 0 0 0 0 0 0 0 0 0 0 0 0 -0 0 0 -0 0 -0 0 0 -0
0 0 0 0 0 0 0 0 0 0 0 0 0 0 0 0 0 0 0 1 0 0 0 0 0 0 0 0 0 0 0 0 0 0 0 0 0 -0 -0 0 0 -0 0 -0 -0 0 0
0 0 0 0 0 0 0 0 0 0 0 0 0 0 0 0 0 0 0 1 0 0 0 0 0 0 0 0 0 0 0 0 0 0 0 0 -0 -0 0 0 -0 0 -0 -0 0 0 0
0 0 0 0 0 0 0 0 0 0 0 0 0 0 0 0 0 0 0 0 0 0 0 0 0 0 0 0 0 0 0 0 0 0 -0 0 0 0 0 0 -0 -0 -0 -0 -0 0 0
0 0 0 0 0 0 0 0 0 0 0 0 0 0 0 0 0 0 0 0 0 0 0 0 0 0 0 0 0 0 0 0 0 0 0 0 0 0 0 0 0 0 -0 -0 0 0 0
0 0 0 0 0 0 0 0 0 0 0 0 0 0 0 0 0 0 0 0 0 0 0 0 0 0 0 0 0 0 0 0 0 0 0 0 0 0 0 0 -0 0 0 0 -0 -0 0
0 0 0 0 0 0 0 0 0 0 0 0 0 0 0 0 0 0 0 0 0 0 0 0 0 0 0 0 0 0 0 0 0 0 0 0 0 0 0 0 0 0 -0 -0 -0 -0 -0
0 0 0 0 0 0 0 0 0 0 0 0 0 0 0 0 0 0 0 0 0 0 0 0 0 0 0 0 0 0 0 0 0 0 0 0 0 0 0 0 0 0 0 -0 -0 0 0
0 0 0 0 0 0 0 0 0 0 0 0 0 0 0 0 0 0 0 0 0 0 0 0 0 0 0 0 0 0 0 0 0 0 0 0 0 0 0 0 0 0 0 0 -0 0 0
0 0 0 0 0 0 0 0 0 0 0 0 0 0 0 0 0 0 0 0 0 0 0 0 0 0 0 0 0 0 0 0 0 0 0 0 0 0 0 0 0 0 0 0 0 0 -0
0 0 0 0 0 0 0 0 0 0 0 0 0 0 0 0 0 0 0 0 0 0 0 0 0 0 0 0 0 0 0 0 0 0 0 0 0 0 0 0 0 0 -0 -0 -0 -0 0
0 0 0 0 0 0 0 0 0 0 0 0 0 0 1 0 0 0 0 0 0 0 0 0 0 0 0 0 0 0 0 0 0 0 0 0 0 0 0 0 0 0 0 0 0 -0 0
0 0 0 0 0 0 0 0 0 0 0 0 0 1 1 0 0 0 0 0 0 0 0 0 0 0 0 0 0 0 0 0 0 0 0 0 0 0 0 0 0 0 0 0 0 0 0
0 0 0 0 0 0 0 0 0 0 0 0 0 1 1 0 0 0 0 0 0 0 0 0 0 0 0 0 0 0 0 0 0 0 0 0 0 0 0 0 0 0 0 0 0 0 -0
-0 0 0 0 0 0 0 0 0 0 0 0 0 1 1 0 0 0 0 0 0 0 0 0 1 0 0 0 0 0 0 0 0 0 0 0 0 0 0 0 0 0 0 0 0 0 0
-0 -0 0 0 0 0 0 0 0 0 0 0 0 1 1 0 0 0 0 0 0 0 0 0 1 1 1 0 0 0 0 0 0 0 0 0 0 0 0 0 0 0 0 0 0 -0 0
0 -0 0 0 0 0 0 0 0 0 0 0 1 1 1 0 0 0 0 0 0 0 0 0 0 0 0 0 0 0 1 1 0 0 0 0 0 0 0 0 0 0 0 0 0 0 0
Wind_Speed_500mb
43 41 38 38 42 42 42 40 37 41 45 42 41 43 52 56 54 51 47 47 47 41 40 44 44 43 40 18 33 29 27 23 19 22 24 25 28 30 29 17 16 21 26 21 21 27 24
44 58 51 45 39 42 43 42 41 38 41 45 44 41 41 45 51 53 50 48 48 44 40 41 45 44 25 31 18 28 18 29 23 26 24 27 26 24 23 21 21 16 20 32 28 30 17
46 45 41 47 54 44 41 44 46 44 43 40 42 43 42 42 43 47 50 50 48 46 43 41 41 42 34 54 20 21 19 22 24 27 25 25 22 21 11 21 27 24 29 35 26 29 26
51 48 48 49 41 56 50 40 43 47 44 42 42 41 42 42 41 40 41 42 42 39 41 39 38 31 32 27 23 31 26 26 23 27 24 21 21 24 23 24 24 31 32 33 15 20 18
57 55 54 54 52 45 50 58 47 45 48 46 42 43 44 42 40 38 39 38 36 36 36 34 28 14 38 26 37 38 35 35 29 23 23 18 22 32 25 24 28 31 31 16 24 25 12
62 62 58 60 60 56 49 44 55 52 46 46 44 43 41 40 38 38 33 28 26 31 31 26 22 17 43 21 15 24 39 40 37 26 26 27 25 26 27 25 26 23 28 27 16 15 16
69 66 66 66 63 64 61 55 52 55 54 46 45 42 40 37 33 30 26 19 16 13 34 26 12 33 9 16 16 21 38 44 36 36 34 41 27 30 33 21 24 22 22 17 16 11 14
71 71 70 69 68 67 65 62 57 52 51 54 45 44 39 35 30 24 20 11 14 14 26 43 58 57 49 13 12 31 42 47 42 39 39 26 33 35 10 7 14 23 27 23 6 6 12
72 70 71 71 68 66 67 64 63 57 48 53 48 40 40 35 32 31 28 23 15 13 20 37 55 67 64 47 41 40 52 60 44 42 40 35 26 21 13 19 18 22 29 4 3 34 25
76 75 73 73 74 72 63 62 66 62 55 48 50 41 38 33 30 27 31 19 18 10 14 24 18 22 52 47 32 54 53 59 29 44 42 37 24 16 25 25 21 25 21 17 20 20 17
83 82 80 81 78 76 74 67 62 64 57 47 58 41 38 39 13 21 2 23 18 4 14 12 20 10 21 49 19 55 57 59 48 41 32 35 34 27 29 25 21 28 10 15 22 24 31
84 85 83 83 81 80 75 77 72 64 59 52 57 53 42 41 39 31 12 16 25 14 29 17 18 21 26 50 42 15 75 61 52 38 39 41 31 31 38 30 15 13 13 20 22 22 21
91 90 88 85 82 80 78 76 72 71 63 54 52 62 51 39 39 30 21 27 15 26 6 26 16 22 30 27 41 31 58 53 43 43 44 39 28 28 15 20 19 22 26 19 15 6 17
94 92 92 91 86 83 80 78 74 71 67 58 54 54 60 50 43 31 39 17 32 33 59 9 8 21 27 25 35 40 44 48 51 53 27 36 40 41 28 31 24 32 33 15 16 13 5
97 96 95 93 90 88 84 81 76 72 70 60 52 50 67 61 53 50 26 29 44 54 25 55 14 24 24 24 22 40 49 51 54 49 37 36 42 44 31 28 27 25 30 18 14 3 7
95 94 94 91 89 86 84 80 79 74 70 63 61 52 76 61 60 47 14 44 49 48 50 34 43 28 24 30 25 33 44 50 53 57 47 21 31 23 27 16 22 17 19 15 13 8 17
96 90 90 90 88 86 83 82 82 79 73 69 67 35 53 58 62 32 17 48 65 55 28 34 37 40 25 26 35 36 33 22 55 56 44 24 28 26 24 31 31 23 20 18 9 14 10
101 95 94 96 95 95 86 85 89 85 82 81 69 21 42 74 34 37 37 52 76 70 45 30 21 37 22 26 33 17 43 44 38 43 51 42 24 25 34 32 40 26 36 33 18 23 13
88 78 76 82 84 86 91 93 95 95 98 96 41 26 44 92 27 34 63 66 57 61 52 41 29 22 24 18 20 35 18 21 19 48 47 39 22 25 32 19 19 24 27 27 28 21 21
82 80 84 84 86 86 87 99 103 103 111 107 35 14 31 83 86 62 63 53 59 76 58 45 33 17 18 19 19 13 32 16 15 29 50 48 31 35 29 32 30 36 34 36 31 18 24
89 89 88 86 85 88 92 95 113 113 125 113 46 19 32 29 52 60 58 54 65 64 74 55 42 36 25 17 21 21 20 12 11 18 15 38 42 38 40 34 26 32 40 39 41 37 35
95 95 93 88 92 91 90 93 116 134 142 108 34 37 55 26 67 65 54 64 68 62 60 60 43 44 33 19 15 17 13 14 17 22 27 38 32 42 39 37 36 27 31 35 37 37 34
93 100 97 93 94 97 97 99 103 121 157 81 60 71 66 42 55 45 51 61 61 60 72 69 59 36 40 20 8 4 13 6 9 7 29 32 28 31 34 39 38 36 36 36 36 33 30
73 81 92 97 99 104 105 108 109 115 161 85 87 82 26 27 36 51 58 64 70 62 59 61 60 44 23 9 4 6 11 8 20 18 17 26 32 22 14 4 25 22 32 38 42 41 33
78 79 78 88 95 105 109 113 114 119 151 115 75 73 35 19 39 41 56 53 67 74 45 56 44 58 20 9 10 8 3 13 15 24 21 20 21 19 15 23 26 30 15 24 29 32 32
62 65 87 76 82 90 109 111 112 111 144 122 81 70 53 25 31 55 40 56 41 42 42 59 57 29 26 12 17 16 17 26 18 11 15 20 22 19 12 28 35 24 31 26 27 26 35
59 72 85 85 89 88 105 107 105 112 147 104 77 70 43 36 19 46 32 48 73 50 33 41 56 29 40 18 18 19 24 29 32 29 13 12 12 26 22 15 17 20 26 28 23 22 21
16 66 86 92 84 85 100 105 115 118 148 101 72 79 50 28 39 15 40 45 55 73 31 39 30 28 20 19 17 12 9 21 25 31 24 21 19 10 16 18 22 15 19 27 30 38 19
38 60 82 87 84 92 98 95 98 134 143 93 68 74 63 16 16 20 19 36 38 86 58 44 36 35 24 17 12 12 7 2 16 22 22 16 19 18 17 10 13 40 32 50 27 19 17
Wind_Direction_500mb
260 262 270 278 281 281 278 275 277 278 277 275 274 272 265 264 265 269 275 280 285 288 293 301 306 318 319 285 270 267 257 234 229 212 219 222 230 234 250 253 249 245 267 272 272 286 284
277 262 259 264 268 277 281 281 277 272 277 275 275 276 278 274 270 270 270 274 278 282 286 294 302 311 312 271 267 264 255 227 220 207 223 227 231 242 289 272 265 299 283 283 271 272 246
292 291 288 268 256 262 269 275 279 276 274 276 277 272 274 277 278 279 278 276 276 279 280 286 295 307 285 252 259 260 238 206 209 211 232 227 232 237 259 252 246 272 268 268 224 226 246
289 288 288 285 282 260 257 264 272 276 277 274 273 277 270 271 277 283 281 278 279 281 276 279 289 299 267 262 251 236 223 216 210 210 224 218 226 251 266 276 267 251 254 261 86 251 221
278 279 283 285 284 277 265 255 259 269 273 275 271 272 273 268 271 280 287 289 284 275 279 277 294 262 272 258 243 236 213 208 204 207 216 221 227 241 242 247 255 225 260 279 198 225 213
279 274 273 275 279 281 280 276 260 254 267 269 274 271 274 272 268 274 285 295 298 285 284 269 247 258 245 242 227 210 208 198 200 204 206 217 225 234 224 245 255 300 209 205 242 220 233
278 275 274 269 268 272 277 275 271 261 253 264 267 272 273 276 266 269 279 311 283 242 218 226 249 224 291 225 234 210 190 186 195 196 210 202 223 231 246 232 274 302 302 257 176 162 280
280 280 277 273 268 262 265 268 271 267 259 250 262 268 265 275 269 253 249 230 300 293 286 253 253 246 239 243 273 210 182 184 200 206 211 203 231 247 235 263 249 244 254 251 178 175 261
277 276 276 276 273 269 263 259 263 263 262 249 255 253 264 265 272 242 231 232 279 300 265 276 240 236 228 226 239 216 193 195 195 211 209 223 227 221 202 203 227 240 267 39 117 266 233
275 275 273 270 269 271 265 262 258 259 258 255 239 240 249 254 278 239 237 252 233 250 273 253 205 236 217 208 235 225 201 200 204 214 220 222 234 212 218 235 216 247 224 272 295 267 282
273 273 272 270 267 263 260 261 256 255 254 252 232 241 230 235 258 204 309 203 182 184 277 107 155 168 190 183 195 206 204 207 216 212 216 217 228 197 229 228 229 263 247 251 267 274 291
273 269 267 265 264 263 260 253 253 252 246 243 234 233 223 234 233 195 154 176 164 224 242 188 160 192 183 205 227 246 196 206 214 219 222 230 208 217 229 229 230 265 238 240 247 257 265
272 267 264 262 260 258 256 253 248 245 241 239 235 230 226 218 221 223 182 183 211 228 202 211 190 186 200 190 213 212 188 195 200 209 211 218 201 218 238 204 199 228 228 227 227 254 237
270 266 262 259 256 254 252 249 245 238 239 230 232 230 227 220 210 220 222 210 224 225 232 82 199 184 201 195 204 194 200 199 208 206 197 206 205 204 190 225 202 205 227 212 206 242 223
269 266 263 258 253 251 248 244 240 234 228 222 223 228 224 218 203 221 253 208 220 222 203 228 191 207 197 205 193 198 215 206 203 204 215 204 215 193 203 209 240 209 219 256 273 322 306
272 266 260 255 251 245 242 240 235 228 222 214 211 216 222 208 202 211 230 233 231 222 238 231 222 208 203 199 196 193 208 208 208 213 219 211 211 190 177 206 222 253 236 214 237 230 230
269 265 257 252 248 242 235 234 229 224 216 204 202 209 216 201 197 200 224 228 227 234 238 211 235 237 239 195 203 202 208 213 210 206 214 218 233 166 159 208 206 199 225 232 155 295 234
270 267 259 251 248 246 234 229 222 219 209 198 195 208 195 190 197 212 220 221 242 225 214 220 280 238 226 207 204 237 222 205 213 206 206 214 212 187 201 209 225 217 211 215 229 234 235
263 257 252 253 245 242 237 229 221 214 207 191 193 184 190 184 197 205 225 218 235 238 239 211 221 229 218 236 212 204 238 262 192 215 202 208 223 214 190 181 207 234 237 228 223 256 232
262 258 257 249 243 237 232 225 216 213 206 188 176 163 176 196 208 207 214 209 211 239 248 224 217 217 203 220 238 226 199 213 248 240 205 214 211 223 217 208 206 212 231 225 232 221 239
266 260 254 248 241 236 229 224 214 211 204 184 181 185 187 189 208 216 217 203 203 214 228 234 220 225 210 202 204 222 219 154 236 212 230 212 220 224 235 243 222 217 209 222 230 228 239
266 259 253 247 238 230 228 221 215 212 200 185 175 189 187 194 201 212 210 219 209 205 214 220 230 218 235 215 220 166 213 179 194 193 216 206 220 226 232 237 243 241 249 234 233 230 250
266 256 249 244 232 229 221 217 215 204 193 186 187 193 185 212 195 208 212 210 216 214 210 221 230 234 215 202 73 36 312 54 353 275 206 202 215 221 234 227 236 240 237 246 243 248 247
269 254 245 239 233 230 219 211 208 201 191 185 189 187 186 195 196 208 206 210 213 210 214 211 214 232 209 138 346 279 273 356 272 253 264 211 208 216 208 234 224 240 234 233 242 253 247
268 254 240 232 226 214 209 203 203 201 192 187 187 196 189 207 199 195 208 210 209 227 221 206 213 228 163 185 244 238 81 332 242 237 215 236 220 218 218 223 242 242 212 225 244 256 248
270 247 221 213 198 201 198 196 197 199 184 185 185 189 196 195 206 196 197 208 206 206 223 211 189 227 213 208 239 217 208 203 202 255 218 219 233 218 186 231 238 240 241 223 250 259 259
279 231 208 200 195 197 194 191 193 192 189 178 184 181 194 195 200 185 195 198 203 198 209 210 163 200 180 188 218 218 220 237 225 188 167 178 213 224 214 236 245 226 227 209 203 241 267
2 178 181 180 182 187 183 184 189 193 180 178 176 182 186 192 186 192 184 193 202 211 192 198 169 197 185 198 210 198 225 219 230 237 176 180 189 188 229 227 238 136 139 196 221 245 253
109 143 160 170 172 176 177 180 180 183 182 172 165 183 181 154 152 192 169 191 206 205 198 205 205 183 191 201 202 220 174 327 212 230 196 215 218 208 204 220 243 186 213 220 250 283 235
Wind_Speed_850mb
43 41 38 38 42 42 42 40 37 41 45 42 41 43 52 56 54 51 47 47 47 41 40 44 44 43 40 18 33 29 27 23 19 22 24 25 28 30 29 17 16 21 26 21 21 27 24
44 58 51 45 39 42 43 42 41 38 41 45 44 41 41 45 51 53 50 48 48 44 40 41 45 44 25 31 18 28 18 29 23 26 24 27 26 24 23 21 21 16 20 32 28 30 17
46 45 41 47 54 44 41 44 46 44 43 40 42 43 42 42 43 47 50 50 48 46 43 41 41 42 34 54 20 21 19 22 24 27 25 25 22 21 11 21 27 24 29 35 26 29 26
51 48 48 49 41 56 50 40 43 47 44 42 42 41 42 42 41 40 41 42 42 39 41 39 38 31 32 27 23 31 26 26 23 27 24 21 21 24 23 24 24 31 32 33 15 20 18
57 55 54 54 52 45 50 58 47 45 48 46 42 43 44 42 40 38 39 38 36 36 36 34 28 14 38 26 37 38 35 35 29 23 23 18 22 32 25 24 28 31 31 16 24 25 12
62 62 58 60 60 56 49 44 55 52 46 46 44 43 41 40 38 38 33 28 26 31 31 26 22 17 43 21 15 24 39 40 37 26 26 27 25 26 27 25 26 23 28 27 16 15 16
69 66 66 66 63 64 61 55 52 55 54 46 45 42 40 37 33 30 26 19 16 13 34 26 12 33 9 16 16 21 38 44 36 36 34 41 27 30 33 21 24 22 22 17 16 11 14
71 71 70 69 68 67 65 62 57 52 51 54 45 44 39 35 30 24 20 11 14 14 26 43 58 57 49 13 12 31 42 47 42 39 39 26 33 35 10 7 14 23 27 23 6 6 12
72 70 71 71 68 66 67 64 63 57 48 53 48 40 40 35 32 31 28 23 15 13 20 37 55 67 64 47 41 40 52 60 44 42 40 35 26 21 13 19 18 22 29 4 3 34 25
76 75 73 73 74 72 63 62 66 62 55 48 50 41 38 33 30 27 31 19 18 10 14 24 18 22 52 47 32 54 53 59 29 44 42 37 24 16 25 25 21 25 21 17 20 20 17
83 82 80 81 78 76 74 67 62 64 57 47 58 41 38 39 13 21 2 23 18 4 14 12 20 10 21 49 19 55 57 59 48 41 32 35 34 27 29 25 21 28 10 15 22 24 31
84 85 83 83 81 80 75 77 72 64 59 52 57 53 42 41 39 31 12 16 25 14 29 17 18 21 26 50 42 15 75 61 52 38 39 41 31 31 38 30 15 13 13 20 22 22 21
91 90 88 85 82 80 78 76 72 71 63 54 52 62 51 39 39 30 21 27 15 26 6 26 16 22 30 27 41 31 58 53 43 43 44 39 28 28 15 20 19 22 26 19 15 6 17
94 92 92 91 86 83 80 78 74 71 67 58 54 54 60 50 43 31 39 17 32 33 59 9 8 21 27 25 35 40 44 48 51 53 27 36 40 41 28 31 24 32 33 15 16 13 5
97 96 95 93 90 88 84 81 76 72 70 60 52 50 67 61 53 50 26 29 44 54 25 55 14 24 24 24 22 40 49 51 54 49 37 36 42 44 31 28 27 25 30 18 14 3 7
95 94 94 91 89 86 84 80 79 74 70 63 61 52 76 61 60 47 14 44 49 48 50 34 43 28 24 30 25 33 44 50 53 57 47 21 31 23 27 16 22 17 19 15 13 8 17
96 90 90 90 88 86 83 82 82 79 73 69 67 35 53 58 62 32 17 48 65 55 28 34 37 40 25 26 35 36 33 22 55 56 44 24 28 26 24 31 31 23 20 18 9 14 10
101 95 94 96 95 95 86 85 89 85 82 81 69 21 42 74 34 37 37 52 76 70 45 30 21 37 22 26 33 17 43 44 38 43 51 42 24 25 34 32 40 26 36 33 18 23 13
88 78 76 82 84 86 91 93 95 95 98 96 41 26 44 92 27 34 63 66 57 61 52 41 29 22 24 18 20 35 18 21 19 48 47 39 22 25 32 19 19 24 27 27 28 21 21
82 80 84 84 86 86 87 99 103 103 111 107 35 14 31 83 86 62 63 53 59 76 58 45 33 17 18 19 19 13 32 16 15 29 50 48 31 35 29 32 30 36 34 36 31 18 24
89 89 88 86 85 88 92 95 113 113 125 113 46 19 32 29 52 60 58 54 65 64 74 55 42 36 25 17 21 21 20 12 11 18 15 38 42 38 40 34 26 32 40 39 41 37 35
95 95 93 88 92 91 90 93 116 134 142 108 34 37 55 26 67 65 54 64 68 62 60 60 43 44 33 19 15 17 13 14 17 22 27 38 32 42 39 37 36 27 31 35 37 37 34
93 100 97 93 94 97 97 99 103 121 157 81 60 71 66 42 55 45 51 61 61 60 72 69 59 36 40 20 8 4 13 6 9 7 29 32 28 31 34 39 38 36 36 36 36 33 30
73 81 92 97 99 104 105 108 109 115 161 85 87 82 26 27 36 51 58 64 70 62 59 61 60 44 23 9 4 6 11 8 20 18 17 26 32 22 14 4 25 22 32 38 42 41 33
78 79 78 88 95 105 109 113 114 119 151 115 75 73 35 19 39 41 56 53 67 74 45 56 44 58 20 9 10 8 3 13 15 24 21 20 21 19 15 23 26 30 15 24 29 32 32
62 65 87 76 82 90 109 111 112 111 144 122 81 70 53 25 31 55 40 56 41 42 42 59 57 29 26 12 17 16 17 26 18 11 15 20 22 19 12 28 35 24 31 26 27 26 35
59 72 85 85 89 88 105 107 105 112 147 104 77 70 43 36 19 46 32 48 73 50 33 41 56 29 40 18 18 19 24 29 32 29 13 12 12 26 22 15 17 20 26 28 23 22 21
16 66 86 92 84 85 100 105 115 118 148 101 72 79 50 28 39 15 40 45 55 73 31 39 30 28 20 19 17 12 9 21 25 31 24 21 19 10 16 18 22 15 19 27 30 38 19
38 60 82 87 84 92 98 95 98 134 143 93 68 74 63 16 16 20 19 36 38 86 58 44 36 35 24 17 12 12 7 2 16 22 22 16 19 18 17 10 13 40 32 50 27 19 17
Wind_Direction_850mb
260 262 270 278 281 281 278 275 277 278 277 275 274 272 265 264 265 269 275 280 285 288 293 301 306 318 319 285 270 267 257 234 229 212 219 222 230 234 250 253 249 245 267 272 272 286 284
277 262 259 264 268 277 281 281 277 272 277 275 275 276 278 274 270 270 270 274 278 282 286 294 302 311 312 271 267 264 255 227 220 207 223 227 231 242 289 272 265 299 283 283 271 272 246
292 291 288 268 256 262 269 275 279 276 274 276 277 272 274 277 278 279 278 276 276 279 280 286 295 307 285 252 259 260 238 206 209 211 232 227 232 237 259 252 246 272 268 268 224 226 246
289 288 288 285 282 260 257 264 272 276 277 274 273 277 270 271 277 283 281 278 279 281 276 279 289 299 267 262 251 236 223 216 210 210 224 218 226 251 266 276 267 251 254 261 86 251 221
278 279 283 285 284 277 265 255 259 269 273 275 271 272 273 268 271 280 287 289 284 275 279 277 294 262 272 258 243 236 213 208 204 207 216 221 227 241 242 247 255 225 260 279 198 225 213
279 274 273 275 279 281 280 276 260 254 267 269 274 271 274 272 268 274 285 295 298 285 284 269 247 258 245 242 227 210 208 198 200 204 206 217 225 234 224 245 255 300 209 205 242 220 233
278 275 274 269 268 272 277 275 271 261 253 264 267 272 273 276 266 269 279 311 283 242 218 226 249 224 291 225 234 210 190 186 195 196 210 202 223 231 246 232 274 302 302 257 176 162 280
280 280 277 273 268 262 265 268 271 267 259 250 262 268 265 275 269 253 249 230 300 293 286 253 253 246 239 243 273 210 182 184 200 206 211 203 231 247 235 263 249 244 254 251 178 175 261
277 276 276 276 273 269 263 259 263 263 262 249 255 253 264 265 272 242 231 232 279 300 265 276 240 236 228 226 239 216 193 195 195 211 209 223 227 221 202 203 227 240 267 39 117 266 233
275 275 273 270 269 271 265 262 258 259 258 255 239 240 249 254 278 239 237 252 233 250 273 253 205 236 217 208 235 225 201 200 204 214 220 222 234 212 218 235 216 247 224 272 295 267 282
273 273 272 270 267 263 260 261 256 255 254 252 232 241 230 235 258 204 309 203 182 184 277 107 155 168 190 183 195 206 204 207 216 212 216 217 228 197 229 228 229 263 247 251 267 274 291
273 269 267 265 264 263 260 253 253 252 246 243 234 233 223 234 233 195 154 176 164 224 242 188 160 192 183 205 227 246 196 206 214 219 222 230 208 217 229 229 230 265 238 240 247 257 265
272 267 264 262 260 258 256 253 248 245 241 239 235 230 226 218 221 223 182 183 211 228 202 211 190 186 200 190 213 212 188 195 200 209 211 218 201 218 238 204 199 228 228 227 227 254 237
270 266 262 259 256 254 252 249 245 238 239 230 232 230 227 220 210 220 222 210 224 225 232 82 199 184 201 195 204 194 200 199 208 206 197 206 205 204 190 225 202 205 227 212 206 242 223
269 266 263 258 253 251 248 244 240 234 228 222 223 228 224 218 203 221 253 208 220 222 203 228 191 207 197 205 193 198 215 206 203 204 215 204 215 193 203 209 240 209 219 256 273 322 306
272 266 260 255 251 245 242 240 235 228 222 214 211 216 222 208 202 211 230 233 231 222 238 231 222 208 203 199 196 193 208 208 208 213 219 211 211 190 177 206 222 253 236 214 237 230 230
269 265 257 252 248 242 235 234 229 224 216 204 202 209 216 201 197 200 224 228 227 234 238 211 235 237 239 195 203 202 208 213 210 206 214 218 233 166 159 208 206 199 225 232 155 295 234
270 267 259 251 248 246 234 229 222 219 209 198 195 208 195 190 197 212 220 221 242 225 214 220 280 238 226 207 204 237 222 205 213 206 206 214 212 187 201 209 225 217 211 215 229 234 235
263 257 252 253 245 242 237 229 221 214 207 191 193 184 190 184 197 205 225 218 235 238 239 211 221 229 218 236 212 204 238 262 192 215 202 208 223 214 190 181 207 234 237 228 223 256 232
262 258 257 249 243 237 232 225 216 213 206 188 176 163 176 196 208 207 214 209 211 239 248 224 217 217 203 220 238 226 199 213 248 240 205 214 211 223 217 208 206 212 231 225 232 221 239
266 260 254 248 241 236 229 224 214 211 204 184 181 185 187 189 208 216 217 203 203 214 228 234 220 225 210 202 204 222 219 154 236 212 230 212 220 224 235 243 222 217 209 222 230 228 239
266 259 253 247 238 230 228 221 215 212 200 185 175 189 187 194 201 212 210 219 209 205 214 220 230 218 235 215 220 166 213 179 194 193 216 206 220 226 232 237 243 241 249 234 233 230 250
266 256 249 244 232 229 221 217 215 204 193 186 187 193 185 212 195 208 212 210 216 214 210 221 230 234 215 202 73 36 312 54 353 275 206 202 215 221 234 227 236 240 237 246 243 248 247
269 254 245 239 233 230 219 211 208 201 191 185 189 187 186 195 196 208 206 210 213 210 214 211 214 232 209 138 346 279 273 356 272 253 264 211 208 216 208 234 224 240 234 233 242 253 247
268 254 240 232 226 214 209 203 203 201 192 187 187 196 189 207 199 195 208 210 209 227 221 206 213 228 163 185 244 238 81 332 242 237 215 236 220 218 218 223 242 242 212 225 244 256 248
270 247 221 213 198 201 198 196 197 199 184 185 185 189 196 195 206 196 197 208 206 206 223 211 189 227 213 208 239 217 208 203 202 255 218 219 233 218 186 231 238 240 241 223 250 259 259
279 231 208 200 195 197 194 191 193 192 189 178 184 181 194 195 200 185 195 198 203 198 209 210 163 200 180 188 218 218 220 237 225 188 167 178 213 224 214 236 245 226 227 209 203 241 267
2 178 181 180 182 187 183 184 189 193 180 178 176 182 186 192 186 192 184 193 202 211 192 198 169 197 185 198 210 198 225 219 230 237 176 180 189 188 229 227 238 136 139 196 221 245 253
109 143 160 170 172 176 177 180 180 183 182 172 165 183 181 154 152 192 169 191 206 205 198 205 205 183 191 201 202 220 174 327 212 230 196 215 218 208 204 220 243 186 213 220 250 283 235